TimeEDT,TemperatureF,Dew PointF,Humidity,Sea Level PressureIn,VisibilityMPH,Wind Direction,Wind SpeedMPH,Gust SpeedMPH,PrecipitationIn,Events,Conditions,WindDirDegrees,DateUTC
12:15 AM,53.6,37.4,54,30.33,10.0,SW,16.1,20.7,N/A,,Partly Cloudy,230,2012-10-14 04:15:00
12:35 AM,53.6,37.4,54,30.34,10.0,SW,11.5,20.7,N/A,,Partly Cloudy,230,2012-10-14 04:35:00
1:15 AM,53.6,39.2,58,30.32,10.0,SW,18.4,23.0,N/A,,Scattered Clouds,230,2012-10-14 05:15:00
1:35 AM,53.6,39.2,58,30.32,10.0,SW,18.4,23.0,N/A,,Mostly Cloudy,220,2012-10-14 05:35:00
1:55 AM,55.4,41.0,58,30.32,10.0,SW,16.1,23.0,N/A,,Overcast,230,2012-10-14 05:55:00
2:15 AM,55.4,42.8,63,30.32,10.0,WSW,17.3,21.9,N/A,,Overcast,240,2012-10-14 06:15:00
2:35 AM,55.4,42.8,63,30.31,10.0,SW,11.5,25.3,N/A,,Overcast,230,2012-10-14 06:35:00
2:55 AM,55.4,42.8,63,30.29,10.0,SW,12.7,19.6,N/A,,Overcast,220,2012-10-14 06:55:00
3:15 AM,55.4,44.6,67,30.27,10.0,SW,16.1,21.9,N/A,,Overcast,220,2012-10-14 07:15:00
3:35 AM,55.4,44.6,67,30.25,10.0,SSW,18.4,24.2,N/A,,Overcast,210,2012-10-14 07:35:00
3:55 AM,57.2,44.6,63,30.26,10.0,SW,15.0,26.5,N/A,,Overcast,220,2012-10-14 07:55:00
4:15 AM,57.2,44.6,63,30.26,10.0,SW,21.9,27.6,N/A,,Overcast,220,2012-10-14 08:15:00
4:35 AM,57.2,46.4,67,30.25,10.0,SW,19.6,26.5,N/A,,Overcast,220,2012-10-14 08:35:00
4:55 AM,57.2,46.4,67,30.24,10.0,SSW,18.4,26.5,N/A,,Overcast,210,2012-10-14 08:55:00
5:15 AM,57.2,48.2,72,30.23,10.0,SSW,20.7,28.8,N/A,,Overcast,210,2012-10-14 09:15:00
5:35 AM,57.2,48.2,72,30.23,10.0,SW,19.6,29.9,N/A,,Overcast,220,2012-10-14 09:35:00
5:55 AM,59.0,48.2,67,30.23,10.0,SW,19.6,27.6,N/A,,Overcast,220,2012-10-14 09:55:00
6:15 AM,59.0,48.2,67,30.23,10.0,SW,21.9,27.6,N/A,,Overcast,220,2012-10-14 10:15:00
6:35 AM,60.8,48.2,63,30.22,10.0,SW,24.2,31.1,N/A,,Overcast,230,2012-10-14 10:35:00
6:55 AM,60.8,48.2,63,30.22,10.0,SW,19.6,29.9,N/A,,Overcast,230,2012-10-14 10:55:00
7:35 AM,60.8,48.2,63,30.23,10.0,WSW,19.6,27.6,N/A,,Overcast,240,2012-10-14 11:35:00
7:55 AM,60.8,48.2,63,30.23,10.0,WSW,19.6,28.8,N/A,,Overcast,240,2012-10-14 11:55:00
8:15 AM,60.8,50.0,68,30.23,10.0,WSW,17.3,25.3,N/A,,Overcast,240,2012-10-14 12:15:00
8:35 AM,60.8,50.0,68,30.23,10.0,WSW,23.0,28.8,N/A,,Overcast,240,2012-10-14 12:35:00
8:55 AM,60.8,50.0,68,30.23,10.0,SW,18.4,28.8,N/A,,Overcast,230,2012-10-14 12:55:00
9:15 AM,60.8,51.8,72,30.22,10.0,SW,20.7,28.8,N/A,,Overcast,230,2012-10-14 13:15:00
9:35 AM,60.8,51.8,72,30.22,10.0,SW,21.9,26.5,N/A,,Overcast,230,2012-10-14 13:35:00
9:55 AM,62.6,51.8,68,30.21,10.0,SW,21.9,28.8,N/A,,Overcast,230,2012-10-14 13:55:00
10:15 AM,62.6,51.8,68,30.21,10.0,SW,21.9,28.8,N/A,,Overcast,230,2012-10-14 14:15:00
10:35 AM,62.6,51.8,68,30.19,10.0,SW,23.0,31.1,N/A,,Mostly Cloudy,230,2012-10-14 14:35:00
10:55 AM,64.4,51.8,64,30.19,10.0,WSW,24.2,32.2,N/A,,Scattered Clouds,240,2012-10-14 14:55:00
11:15 AM,64.4,53.6,68,30.19,10.0,WSW,20.7,31.1,N/A,,Mostly Cloudy,240,2012-10-14 15:15:00
11:55 AM,64.4,53.6,68,30.19,10.0,WSW,23.0,32.2,N/A,,Mostly Cloudy,240,2012-10-14 15:55:00
12:15 PM,64.4,53.6,68,30.18,10.0,SW,21.9,28.8,N/A,,Overcast,230,2012-10-14 16:15:00
12:35 PM,64.4,55.4,73,30.18,10.0,SW,20.7,32.2,N/A,,Overcast,230,2012-10-14 16:35:00
12:55 PM,66.2,55.4,68,30.17,10.0,SW,21.9,31.1,N/A,,Overcast,230,2012-10-14 16:55:00
1:15 PM,64.4,55.4,73,30.16,10.0,SW,21.9,29.9,N/A,,Overcast,230,2012-10-14 17:15:00
1:35 PM,66.2,55.4,68,30.15,10.0,SW,23.0,28.8,N/A,,Overcast,230,2012-10-14 17:35:00
1:55 PM,66.2,55.4,68,30.14,10.0,SW,20.7,28.8,N/A,,Overcast,230,2012-10-14 17:55:00
2:15 PM,66.2,55.4,68,30.14,10.0,SW,20.7,27.6,N/A,,Overcast,230,2012-10-14 18:15:00
2:35 PM,64.4,53.6,68,30.13,10.0,SW,20.7,29.9,N/A,,Overcast,230,2012-10-14 18:35:00
2:55 PM,64.4,55.4,73,30.11,10.0,SW,20.7,26.5,N/A,,Mostly Cloudy,220,2012-10-14 18:55:00
3:35 PM,64.4,55.4,73,30.10,10.0,SW,23.0,31.1,N/A,,Mostly Cloudy,220,2012-10-14 19:35:00
3:55 PM,64.4,55.4,73,30.09,10.0,SW,18.4,26.5,N/A,,Partly Cloudy,230,2012-10-14 19:55:00
4:15 PM,66.2,55.4,68,30.09,10.0,SW,18.4,25.3,N/A,,Partly Cloudy,230,2012-10-14 20:15:00
4:35 PM,64.4,55.4,73,30.09,10.0,SW,18.4,25.3,N/A,,Clear,220,2012-10-14 20:35:00
4:55 PM,64.4,55.4,73,30.09,10.0,SW,19.6,26.5,N/A,,Clear,220,2012-10-14 20:55:00
5:15 PM,64.4,55.4,73,30.08,10.0,SW,17.3,26.5,N/A,,Clear,220,2012-10-14 21:15:00
5:35 PM,64.4,57.2,77,30.08,10.0,SW,16.1,23.0,N/A,,Clear,230,2012-10-14 21:35:00
5:55 PM,62.6,57.2,82,30.08,10.0,SW,17.3,25.3,N/A,,Clear,220,2012-10-14 21:55:00
6:15 PM,62.6,57.2,82,30.08,10.0,SW,16.1,24.2,N/A,,Clear,220,2012-10-14 22:15:00
6:35 PM,62.6,57.2,82,30.08,10.0,SW,17.3,23.0,N/A,,Clear,220,2012-10-14 22:35:00
6:55 PM,62.6,57.2,82,30.08,10.0,SW,16.1,23.0,N/A,,Clear,220,2012-10-14 22:55:00
7:35 PM,62.6,57.2,82,30.07,10.0,SW,16.1,21.9,N/A,,Clear,220,2012-10-14 23:35:00
7:55 PM,62.6,57.2,82,30.07,10.0,SW,16.1,21.9,N/A,,Clear,220,2012-10-14 23:55:00
8:15 PM,62.6,57.2,82,30.07,10.0,SW,15.0,21.9,N/A,,Clear,220,2012-10-15 00:15:00
8:35 PM,62.6,57.2,82,30.06,10.0,SW,16.1,20.7,N/A,,Clear,220,2012-10-15 00:35:00
8:55 PM,62.6,57.2,82,30.06,10.0,SSW,16.1,19.6,N/A,,Clear,210,2012-10-15 00:55:00
9:15 PM,62.6,57.2,82,30.06,10.0,SW,16.1,23.0,N/A,,Clear,220,2012-10-15 01:15:00
9:35 PM,62.6,57.2,82,30.06,10.0,SSW,17.3,23.0,N/A,,Clear,210,2012-10-15 01:35:00
9:55 PM,62.6,57.2,82,30.05,10.0,SSW,17.3,23.0,N/A,,Clear,210,2012-10-15 01:55:00
10:15 PM,62.6,57.2,82,30.05,10.0,SW,17.3,23.0,N/A,,Clear,220,2012-10-15 02:15:00
10:35 PM,62.6,57.2,82,30.05,10.0,SW,18.4,25.3,N/A,,Clear,220,2012-10-15 02:35:00
10:55 PM,62.6,57.2,82,30.04,10.0,SSW,17.3,21.9,N/A,,Clear,210,2012-10-15 02:55:00
11:15 PM,64.4,57.2,77,30.04,10.0,SSW,15.0,23.0,N/A,,Clear,210,2012-10-15 03:15:00
11:35 PM,64.4,57.2,77,30.03,10.0,SSW,17.3,23.0,N/A,,Clear,210,2012-10-15 03:35:00
11:55 PM,64.4,57.2,77,30.02,10.0,SSW,15.0,23.0,N/A,,Clear,210,2012-10-15 03:55:00